GFSGBSN_sfc_thetae_231.txt.gz
Theta_e
321 321 321 320 320 320 319 319 319 319 318 318 318 317 317 317 317 317 317 317 319 321 321 323 324 327 322 314 316 324 352 345 329 326 321 320 319 317 314 316 318 318 318 324 327 330 332
321 321 320 320 320 319 319 319 319 318 318 317 317 317 316 316 316 317 317 317 318 320 321 323 325 330 318 311 323 324 322 324 325 325 323 321 319 319 316 316 315 317 317 318 323 326 327
321 320 320 320 319 319 318 318 319 318 317 317 316 316 316 316 316 316 316 316 318 319 321 323 326 328 313 316 322 322 322 322 325 325 321 322 321 319 318 316 317 317 314 317 319 322 323
319 319 319 319 319 318 318 317 318 317 317 317 316 316 315 316 316 316 315 315 318 320 322 324 328 321 310 319 320 321 323 323 323 325 324 324 322 319 317 317 315 312 314 310 317 319 322
318 318 318 318 318 318 317 317 317 317 317 318 317 315 315 315 315 315 314 316 319 321 323 326 320 312 310 324 319 321 323 321 320 320 321 322 320 315 315 312 310 310 306 307 311 317 318
318 318 317 318 317 317 317 316 316 316 317 317 316 315 314 314 314 313 314 316 318 321 323 325 322 313 314 313 317 319 322 320 318 318 318 317 315 314 312 311 303 305 305 306 307 312 315
318 317 317 317 317 317 316 316 316 316 316 317 316 315 313 313 313 313 313 316 309 307 313 305 306 308 313 317 316 317 319 318 317 317 312 311 311 309 308 309 309 308 306 305 309 312 310
317 316 316 316 316 317 316 316 316 317 316 316 315 314 313 313 312 313 312 313 311 312 308 311 308 308 311 313 310 314 319 315 313 309 310 311 308 310 310 309 307 306 305 307 309 310 311
318 317 317 316 316 316 316 316 315 316 316 315 315 314 312 312 313 311 308 310 313 314 308 310 312 312 314 313 310 313 317 314 311 309 308 307 309 310 309 307 306 306 306 306 305 308 309
319 318 317 316 316 316 316 315 315 315 315 315 315 313 311 312 308 309 309 312 316 315 306 306 311 313 311 312 309 314 316 315 311 308 308 308 310 308 308 307 307 305 307 306 305 306 303
319 318 317 316 316 316 316 315 315 315 314 315 314 312 311 311 308 313 315 315 312 313 294 309 310 314 310 309 309 310 315 315 310 309 309 307 307 307 306 308 308 307 309 307 307 306 305
319 319 318 318 317 316 315 315 315 315 314 314 313 311 311 310 311 316 315 314 315 305 297 307 309 308 307 307 308 310 312 315 313 309 308 309 310 309 309 309 309 309 308 307 307 306 303
319 318 318 318 316 316 316 315 315 314 314 313 311 308 310 312 311 316 314 316 305 300 308 305 305 307 307 305 306 308 307 307 306 302 303 305 306 309 309 307 309 308 307 303 301 302 300
319 318 318 318 317 316 316 315 315 314 314 312 308 308 310 313 314 314 317 313 300 305 307 310 306 305 304 305 305 305 305 304 305 305 304 302 302 308 310 309 308 307 308 304 295 298 301
319 318 318 317 317 316 316 315 314 314 313 311 308 310 312 315 315 314 316 304 303 306 311 309 306 304 304 306 305 305 305 305 307 307 303 302 304 311 311 311 310 306 307 306 302 300 301
319 318 318 317 317 316 315 315 315 313 312 310 312 316 319 316 316 316 314 301 307 310 313 310 305 306 303 305 305 305 304 307 306 308 311 307 303 309 311 311 310 310 308 304 306 298 296
319 318 317 317 316 315 315 316 314 313 311 309 316 318 319 316 316 319 307 308 310 314 314 309 308 306 306 306 305 304 303 310 312 308 308 308 307 307 309 307 306 308 306 304 305 304 299
318 318 317 317 317 317 317 315 314 312 309 309 318 312 320 317 313 308 310 310 306 311 313 311 311 310 309 308 306 307 305 310 312 310 306 310 308 305 305 309 307 307 306 306 304 300 302
318 318 318 317 317 317 317 315 314 311 310 309 316 316 320 317 306 309 309 308 310 310 311 310 309 311 311 308 308 308 309 312 312 312 310 310 307 303 303 306 308 306 306 304 304 304 302
319 318 318 317 317 317 317 315 314 312 311 311 317 313 316 315 309 308 308 308 307 311 310 312 310 310 310 309 310 308 308 311 311 312 317 315 306 307 303 305 307 304 305 304 305 302 302
319 318 318 317 317 317 317 315 314 312 310 311 312 310 311 310 311 310 310 308 308 307 311 313 312 310 310 308 308 307 308 310 311 314 310 311 307 306 305 305 305 305 305 305 304 305 302
318 318 318 317 317 317 317 315 315 313 310 313 312 311 311 310 310 310 304 309 308 308 309 310 310 309 310 310 310 308 309 310 309 312 309 308 307 305 304 305 304 303 305 305 304 304 303
318 318 318 317 317 317 317 316 316 313 312 313 312 312 312 304 306 308 308 308 308 310 311 312 310 310 309 309 311 310 310 308 308 308 308 308 306 304 301 301 302 300 304 304 306 309 309
318 318 317 317 316 317 317 317 317 314 312 311 312 311 311 306 308 307 307 307 307 308 309 310 311 311 310 311 310 309 309 308 307 306 306 304 305 303 301 301 292 303 310 309 308 309 310
318 317 317 317 316 316 317 318 317 316 313 314 313 312 311 306 308 308 308 307 308 310 309 309 310 310 310 309 306 302 304 305 306 304 302 304 305 300 298 297 299 304 307 307 306 306 310
317 317 317 316 316 316 317 317 318 316 314 314 314 314 313 309 307 308 308 308 308 308 309 309 312 313 311 308 305 299 297 300 300 303 305 304 305 302 298 295 293 302 308 311 310 302 310
317 317 316 316 316 315 316 317 317 317 315 313 314 314 313 309 311 309 310 310 309 308 309 308 309 312 310 307 303 301 300 303 300 300 301 303 303 300 299 298 302 307 310 311 300 303 311
317 317 316 316 316 315 315 316 317 317 316 313 314 314 313 310 312 313 312 311 309 309 309 307 309 310 309 306 304 304 303 303 302 302 301 301 301 301 300 298 295 311 309 304 309 313 312
316 316 315 315 315 315 315 316 316 316 316 314 313 313 314 312 312 313 316 317 313 311 310 309 309 309 311 307 306 305 303 302 300 299 304 301 304 303 303 303 309 313 311 314 313 314 314

GFSGBSN_sfc_thetae_234.txt.gz
Theta_e
322 322 321 321 320 320 319 319 319 319 319 319 318 318 317 317 318 318 318 318 318 319 322 323 325 327 328 320 321 330 354 348 336 330 328 326 324 324 321 323 323 320 322 323 327 329 331
321 320 320 320 320 320 319 319 319 319 319 318 318 317 317 317 317 317 317 317 317 319 321 323 326 328 324 315 328 329 328 328 329 328 329 327 324 324 323 322 321 321 322 322 323 326 329
319 319 319 319 319 319 318 318 318 318 318 318 318 317 317 316 316 317 317 316 316 319 321 323 326 329 318 320 328 330 328 328 328 328 327 327 328 324 324 321 322 321 318 321 322 323 325
319 318 318 318 318 318 318 317 317 318 318 318 318 317 316 316 316 316 316 316 317 320 322 325 328 326 317 325 327 326 329 327 329 329 328 329 328 324 323 323 320 316 319 314 319 321 325
319 318 318 318 318 317 317 317 317 317 318 318 317 316 315 315 315 315 315 315 318 322 324 326 326 319 316 328 323 327 328 324 325 326 328 326 327 322 322 317 315 315 311 310 312 319 318
318 318 317 317 317 317 317 317 317 317 318 318 317 316 314 314 314 314 314 315 320 322 325 325 323 317 320 317 322 324 328 326 323 324 324 324 323 320 320 315 308 309 309 310 310 314 316
319 318 318 318 317 317 317 317 316 317 317 317 316 315 314 313 313 313 316 322 317 315 316 312 312 314 317 318 322 322 325 324 323 323 318 319 316 314 314 314 313 312 311 309 312 315 313
319 318 318 318 317 317 317 316 316 317 316 316 316 315 314 313 313 314 319 317 316 317 308 313 312 312 315 316 314 319 325 318 318 315 318 316 314 316 315 314 312 312 310 310 313 314 313
319 318 318 317 317 317 317 316 316 317 316 316 315 315 313 311 313 315 317 317 323 324 314 313 315 314 316 318 314 316 322 319 317 316 315 314 315 315 314 312 311 312 309 309 309 313 315
319 319 319 319 319 318 317 317 317 316 316 316 315 314 312 311 309 318 315 320 322 324 308 309 311 316 317 317 313 320 324 320 316 314 315 315 317 313 313 312 313 309 313 311 310 310 307
319 319 319 318 318 318 317 316 317 316 316 315 314 313 312 309 318 316 321 325 322 322 298 309 313 321 317 313 315 315 321 319 314 314 314 311 312 312 311 312 313 310 313 312 312 311 311
320 319 319 319 318 317 317 316 316 316 315 315 313 312 311 314 321 324 324 322 321 310 299 307 313 312 311 312 313 316 317 320 318 312 313 313 316 314 314 314 314 314 313 313 313 312 306
320 319 319 318 317 317 316 316 315 315 315 314 311 309 311 319 320 325 323 319 311 305 313 308 308 311 310 309 310 312 312 311 309 305 306 310 311 315 315 312 315 314 311 306 303 304 305
320 319 318 318 317 316 316 315 315 315 314 312 309 308 313 319 325 322 321 316 306 309 311 314 312 312 308 310 310 310 310 309 312 310 310 305 304 312 316 314 312 312 312 307 299 303 305
320 319 318 317 317 316 316 316 315 314 313 311 309 320 322 324 322 322 321 309 311 312 315 312 311 308 307 308 309 310 310 310 312 313 308 308 308 314 315 316 315 312 310 314 308 308 305
320 319 318 317 317 317 316 316 315 314 313 310 323 325 323 326 324 320 317 305 314 316 316 315 309 311 306 307 308 309 310 313 311 314 316 312 307 314 315 316 316 315 316 308 311 301 300
320 319 318 318 317 317 316 316 315 314 312 310 325 318 322 324 324 321 311 312 313 316 317 314 312 310 310 308 310 309 310 313 315 314 315 314 311 312 315 313 312 313 312 313 312 309 303
320 319 318 318 317 317 316 316 314 312 310 310 327 311 323 326 317 320 313 312 306 314 318 316 316 315 312 312 310 310 309 313 317 316 311 315 313 308 310 314 315 314 313 313 307 306 309
320 319 318 318 317 317 316 315 314 312 310 319 326 317 325 325 310 310 313 311 313 313 316 314 314 317 317 315 312 313 313 315 317 316 315 316 311 307 308 311 314 312 313 314 313 312 307
320 319 318 318 317 317 316 315 313 312 311 317 325 313 318 322 321 313 310 311 311 316 315 317 316 318 317 315 318 314 313 314 316 317 320 318 314 311 306 310 314 310 311 312 312 307 308
320 319 318 318 318 317 316 315 314 313 311 316 324 321 319 311 314 314 315 314 312 312 316 318 316 315 315 312 313 313 315 315 315 313 316 317 312 314 313 312 311 311 310 311 309 310 307
318 319 318 318 318 317 317 316 315 313 311 323 320 320 321 322 317 316 309 314 313 313 315 314 315 315 316 314 315 312 314 316 315 317 317 316 313 313 310 311 310 308 310 310 310 310 310
318 319 318 318 318 317 317 316 316 313 313 322 324 324 320 309 317 316 315 315 314 315 316 317 317 316 315 314 317 317 317 316 316 315 313 314 312 310 306 310 309 305 309 310 311 311 310
318 318 317 317 317 317 317 316 317 314 313 321 320 320 319 315 315 316 314 313 313 315 314 315 318 317 316 318 317 317 317 316 315 315 314 313 313 312 307 309 299 309 314 312 309 310 314
317 317 317 317 317 317 317 317 317 316 314 322 322 320 320 317 319 314 313 313 315 315 315 315 315 317 318 315 314 310 310 310 311 311 312 312 310 306 302 302 305 306 311 311 310 310 316
314 317 317 317 317 317 316 317 318 317 314 321 322 322 321 316 315 315 314 315 315 315 314 314 319 320 317 318 312 305 303 305 305 308 313 310 312 306 304 299 297 309 313 315 315 305 316
314 317 317 316 316 316 317 316 317 317 315 318 323 322 320 316 317 316 316 315 317 316 316 315 316 317 318 313 307 305 304 308 303 303 306 308 309 305 305 302 306 312 314 315 304 307 315
316 317 316 316 315 315 316 316 317 317 316 316 323 322 319 319 317 318 316 318 317 318 314 315 314 315 316 309 308 308 305 309 306 309 308 307 305 305 307 302 299 314 313 308 314 316 316
316 316 315 315 314 314 316 316 316 316 316 315 320 322 322 319 318 321 320 320 318 316 319 318 316 316 318 315 313 315 308 310 307 303 311 305 310 308 307 308 315 317 315 317 317 316 317

GFSGBSN_sfc_thetae_237.txt.gz
Theta_e
321 321 321 321 321 321 320 320 320 320 319 319 319 318 318 318 318 318 319 319 319 319 320 324 325 327 328 323 324 334 353 346 335 335 331 329 326 326 323 323 322 321 321 323 324 325 326
320 320 320 320 320 319 319 319 319 319 319 319 319 318 318 317 318 318 318 319 319 319 321 324 326 327 329 318 332 333 332 332 333 333 331 330 327 329 325 322 322 322 321 322 323 323 325
320 319 319 319 319 319 319 318 319 319 319 319 319 318 317 317 317 318 318 318 318 319 321 324 327 330 324 321 332 335 332 333 333 333 330 330 331 328 326 321 325 324 319 321 322 323 322
319 319 319 319 318 318 318 318 318 318 318 319 319 318 317 317 316 317 317 317 318 319 322 325 328 329 321 329 333 330 332 332 334 334 333 333 333 329 327 327 323 319 320 316 320 320 325
320 319 319 319 318 318 318 318 318 318 318 318 318 318 317 316 316 316 316 316 318 322 325 327 327 326 318 327 326 331 333 330 332 332 333 331 331 326 324 320 317 317 313 312 315 319 318
319 320 320 319 318 318 318 318 318 318 318 318 318 317 316 315 315 315 315 315 321 322 325 328 324 320 322 320 325 328 331 330 327 329 327 326 326 321 321 318 309 311 311 312 312 316 317
320 319 319 319 318 318 318 318 318 318 318 318 318 317 315 314 314 314 315 322 319 317 319 316 318 318 318 323 325 323 328 327 327 326 319 323 318 316 317 317 315 314 313 311 314 316 314
320 319 319 319 319 318 318 317 318 318 317 317 317 316 315 314 313 314 318 319 320 321 312 318 316 318 320 320 316 320 327 321 322 318 321 320 315 319 319 317 315 314 311 312 313 315 314
320 320 319 319 319 319 318 318 318 317 317 317 316 315 314 312 313 316 320 321 326 326 316 313 316 316 317 319 315 317 322 322 320 317 318 316 318 319 316 316 313 314 311 311 310 314 317
321 320 319 319 319 317 318 317 317 317 317 316 316 315 313 312 311 322 319 327 327 328 312 310 312 316 319 319 314 322 323 321 318 315 318 317 322 317 315 314 315 310 315 313 312 312 309
321 320 319 319 318 317 317 316 317 317 316 316 316 314 313 309 321 319 324 328 329 325 300 312 314 324 320 316 317 317 325 321 316 316 317 314 316 314 313 314 316 312 316 313 313 312 313
321 320 320 319 318 317 317 316 317 316 316 316 315 313 312 315 322 328 330 330 326 311 302 308 315 313 313 315 315 317 319 323 322 316 317 315 319 317 317 318 316 317 314 315 315 313 306
321 320 320 319 318 317 317 317 317 316 315 314 313 311 311 324 324 330 330 324 311 307 313 308 309 312 312 311 312 314 313 313 311 308 308 312 313 317 318 314 317 315 312 305 305 305 303
321 320 319 319 318 317 317 317 316 315 315 313 310 309 313 323 329 329 326 317 308 312 309 313 312 312 309 311 312 312 312 310 314 313 310 306 305 312 318 314 312 315 313 306 301 302 304
321 320 319 319 318 317 317 317 315 315 314 311 309 322 324 323 325 328 321 311 314 313 315 312 313 310 309 311 311 311 311 311 313 314 309 308 310 316 317 319 317 314 310 316 309 311 306
321 320 319 319 318 317 316 316 316 314 313 311 326 322 320 329 329 324 318 309 316 319 319 316 310 313 309 309 309 310 311 315 313 315 317 314 310 316 317 319 318 316 319 310 312 303 303
320 320 319 319 318 317 317 316 315 314 312 311 324 319 325 330 327 320 313 315 317 320 320 316 314 312 313 310 311 310 312 314 316 315 317 316 313 313 316 314 313 314 312 314 313 311 304
320 320 319 319 318 317 317 316 315 313 311 310 327 316 324 329 317 318 314 316 307 318 321 319 319 316 314 313 311 312 311 315 319 319 313 317 314 310 312 318 319 317 314 315 309 307 311
319 320 319 319 318 318 317 316 314 312 311 321 325 321 326 328 312 314 317 316 317 317 319 318 316 318 317 314 311 313 314 319 319 319 317 318 312 307 310 315 317 313 315 315 315 314 309
319 320 319 319 318 318 317 316 314 313 311 317 328 315 319 322 321 317 313 315 314 318 319 320 319 320 318 316 319 315 315 317 319 319 324 321 314 311 306 310 316 312 314 315 314 309 310
318 319 320 319 319 318 317 316 315 313 312 318 328 323 321 312 314 316 316 316 314 314 320 321 319 319 317 315 316 315 318 317 318 316 318 319 312 315 316 315 314 314 313 314 313 313 309
317 319 319 319 319 318 318 316 315 314 311 323 323 323 326 322 318 315 309 315 315 316 318 317 318 318 318 317 317 315 316 318 317 321 319 321 313 315 312 315 314 312 313 314 313 313 312
315 318 319 319 319 318 318 317 316 314 313 325 327 330 325 315 319 315 314 314 316 318 319 322 319 318 317 318 320 321 321 321 320 318 318 317 315 313 309 314 313 308 312 313 314 314 313
314 316 318 318 318 318 318 317 317 316 314 323 325 325 323 319 319 317 316 316 317 318 319 319 321 320 321 323 323 322 320 319 319 319 319 315 315 314 308 311 301 313 317 314 311 312 312
313 314 317 318 317 317 318 318 318 317 315 322 326 324 324 319 320 318 317 316 319 319 319 319 320 323 324 321 317 314 314 315 316 317 317 317 314 309 306 306 309 311 313 312 311 311 317
312 314 317 318 317 316 317 318 318 317 315 322 328 326 325 321 319 321 318 319 318 318 318 319 322 324 322 319 315 309 306 310 309 311 316 314 314 309 307 302 299 312 315 317 316 305 319
312 314 317 317 316 315 316 317 317 317 316 318 326 326 324 321 322 322 319 320 322 322 319 321 320 319 321 316 311 309 308 311 305 306 309 311 311 306 306 304 308 316 317 318 305 310 319
313 315 317 316 315 315 315 316 317 317 316 317 326 328 323 323 322 322 321 322 322 322 318 321 319 319 319 313 312 311 310 311 309 311 311 309 308 307 308 305 303 318 316 310 317 320 319
313 316 316 315 314 314 314 315 316 315 316 316 324 327 326 323 323 325 324 323 322 321 321 323 321 321 321 317 318 314 312 311 310 305 315 307 313 311 311 311 319 319 317 319 319 318 318

GFSGBSN_sfc_thetae_240.txt.gz
Theta_e
320 321 320 320 320 320 319 319 320 319 319 319 320 319 319 318 319 319 320 320 320 321 321 322 325 327 326 321 322 332 353 345 333 334 332 329 326 326 322 323 322 320 321 323 325 325 326
320 319 320 319 319 319 319 319 319 319 319 319 319 319 318 318 318 319 319 319 320 320 321 323 326 327 326 317 333 334 334 336 336 334 331 329 327 329 325 322 321 321 321 321 323 324 324
320 320 320 319 319 319 319 319 319 318 318 319 319 319 318 318 318 318 319 319 319 320 321 324 326 327 323 322 332 334 334 334 336 334 329 330 331 327 327 321 324 323 318 321 321 322 322
320 320 320 320 319 318 318 318 318 318 318 319 319 319 318 317 317 318 318 318 318 320 322 325 328 325 319 329 332 331 334 334 335 335 333 332 332 328 326 327 322 319 320 315 320 320 323
321 320 320 320 319 318 318 318 318 318 317 318 318 317 317 316 316 316 317 317 318 321 324 326 325 321 317 331 324 329 333 330 333 333 333 333 330 325 325 319 316 317 312 312 315 320 318
321 320 320 320 320 319 318 318 317 318 317 317 316 316 316 316 316 316 316 316 321 320 325 327 324 319 322 320 324 326 333 332 329 329 326 326 324 320 320 317 308 312 311 312 311 317 316
321 320 320 319 319 319 318 318 317 317 317 317 316 317 315 315 315 315 315 319 316 315 320 315 317 318 319 325 327 325 329 328 327 324 318 322 317 314 317 317 316 314 312 311 314 317 314
322 321 320 320 319 319 318 317 317 317 317 317 316 317 315 314 314 314 317 320 321 321 311 317 318 319 322 322 316 320 326 321 322 316 320 318 314 320 320 316 314 313 311 311 314 316 314
322 321 320 320 318 319 318 317 318 316 316 317 317 316 314 314 314 314 317 320 327 325 315 314 317 315 318 319 314 316 321 320 319 317 317 315 318 321 316 314 313 313 312 311 309 313 315
322 321 320 320 318 318 318 316 317 317 316 317 317 316 314 313 309 318 316 323 326 326 312 310 312 315 318 317 313 322 323 320 319 316 318 317 321 319 315 313 315 310 315 313 311 310 307
322 321 320 320 319 318 318 318 317 317 316 316 316 315 313 311 316 320 323 327 327 325 301 311 311 322 320 315 317 317 323 321 315 315 317 314 316 316 313 313 317 312 316 313 312 310 310
322 321 320 320 319 318 317 317 317 316 316 316 315 314 313 314 317 324 330 330 324 308 301 308 314 313 312 315 315 318 318 323 322 317 318 316 320 317 315 317 317 317 314 313 314 312 304
322 321 321 320 319 318 317 317 317 316 315 314 313 312 311 322 321 329 330 324 307 304 313 308 309 312 311 311 312 313 314 313 312 308 308 313 312 317 317 313 317 314 310 304 304 305 303
322 321 320 319 318 318 317 316 316 315 314 313 310 310 313 321 328 329 326 315 305 313 310 313 311 311 308 311 311 312 311 309 314 312 308 306 304 311 315 313 311 312 311 305 300 301 304
321 321 320 319 318 318 317 316 315 315 314 312 309 319 324 321 321 327 319 308 311 312 314 310 311 308 308 310 311 310 310 310 313 313 308 308 307 315 316 317 315 311 309 314 308 309 306
320 320 320 319 319 318 317 316 315 315 313 311 322 322 319 325 324 324 315 308 315 320 316 314 307 310 306 309 308 309 309 313 312 315 316 312 308 316 317 317 317 315 317 309 310 304 302
319 320 320 319 319 318 317 316 315 314 313 311 321 321 322 328 327 318 309 315 317 321 321 315 312 311 312 310 310 310 310 314 315 315 316 313 312 313 316 313 311 312 310 312 312 310 303
319 319 320 319 318 318 318 316 315 313 311 310 324 318 327 328 314 315 311 317 308 318 320 320 319 317 313 314 310 311 311 314 318 317 312 315 312 308 312 318 318 318 315 314 309 308 310
318 319 319 319 319 318 318 316 314 312 311 317 323 321 325 324 310 311 315 316 317 317 318 317 315 317 317 313 309 313 315 319 319 317 317 318 311 305 308 313 317 315 315 314 313 312 309
317 319 319 319 319 319 318 316 314 313 312 315 322 314 317 319 319 316 316 314 314 318 318 319 318 319 317 314 316 313 315 318 319 319 328 322 313 309 305 309 314 311 315 316 313 308 308
316 317 319 319 319 319 318 317 315 314 312 315 323 323 320 310 312 317 318 315 312 312 317 319 317 317 316 313 315 315 317 318 319 317 320 317 310 313 314 314 314 314 313 314 312 313 309
315 316 318 319 319 319 318 317 316 314 312 321 323 321 326 319 316 314 311 314 313 315 317 315 315 317 318 315 317 314 317 318 317 320 318 319 312 314 311 313 314 311 313 313 313 313 312
314 314 316 318 319 319 318 317 316 314 314 326 328 329 327 318 319 314 313 314 315 318 320 321 319 318 317 319 322 322 322 320 319 318 317 316 313 312 307 312 311 308 312 313 314 315 313
312 313 314 316 318 318 317 318 317 316 314 319 326 323 322 319 319 316 315 316 315 318 317 320 322 321 322 325 324 323 321 319 318 317 318 314 314 312 306 310 301 312 318 316 312 313 314
311 312 314 316 318 317 316 317 318 317 315 318 326 323 324 319 321 320 318 317 317 320 319 321 322 325 326 322 317 313 313 314 315 317 317 318 314 308 305 304 309 311 314 313 311 311 318
311 312 314 316 318 317 316 317 318 317 315 318 325 327 323 320 319 323 319 319 315 317 318 320 324 326 323 319 314 309 305 310 309 312 318 315 316 309 307 302 300 312 316 319 317 307 319
312 313 314 317 317 316 315 316 317 317 315 316 324 330 323 320 325 324 319 320 323 320 317 320 321 320 323 315 310 308 307 313 307 306 309 310 313 307 306 303 307 316 318 319 306 309 319
311 313 314 317 316 315 315 315 316 316 316 316 323 331 323 322 325 324 324 322 322 322 315 322 320 320 318 313 310 311 310 312 310 312 310 309 308 307 309 305 303 319 318 313 317 319 318
314 314 316 315 315 314 314 314 314 314 315 315 323 329 327 321 325 327 326 325 324 322 320 323 322 322 321 316 317 315 311 313 312 305 316 308 313 311 311 310 319 318 317 319 318 317 317

GFSGBSN_sfc_thetae_246.txt.gz
Theta_e
320 320 321 320 319 319 319 319 318 318 318 318 318 318 318 318 318 318 320 320 320 321 321 323 324 326 319 311 315 324 352 349 332 325 322 321 318 316 313 316 315 314 320 321 324 329 329
322 320 320 320 319 319 318 318 318 318 318 318 318 317 317 317 317 318 319 320 320 320 321 322 324 327 317 308 322 325 326 325 324 323 325 323 320 322 315 315 312 317 320 320 321 321 326
321 321 321 319 319 319 318 318 318 318 318 318 317 317 317 317 317 317 319 319 319 319 321 322 325 325 316 312 324 323 321 320 325 324 322 327 322 316 315 313 319 317 312 315 317 319 323
323 321 320 319 319 318 318 318 318 317 317 317 317 317 316 316 316 316 318 318 318 319 321 323 326 319 307 323 323 323 318 319 325 325 324 325 322 317 314 317 316 313 313 307 316 317 320
323 322 321 320 319 319 318 317 317 317 317 317 317 316 316 316 315 316 316 317 318 321 324 325 314 311 305 325 317 320 318 319 321 323 324 329 320 313 314 308 305 309 303 308 315 318 317
323 323 322 320 319 319 318 317 317 317 317 317 317 316 316 315 314 315 315 316 317 317 321 321 321 307 310 311 315 319 319 319 318 320 320 317 312 308 307 304 299 305 303 308 310 312 313
323 323 322 321 320 320 318 317 317 317 317 317 316 315 315 315 313 314 310 308 302 303 305 302 305 310 313 315 318 317 319 315 314 313 308 312 306 303 307 307 309 307 304 304 310 313 309
323 322 322 321 321 320 318 317 317 316 317 316 316 315 315 314 313 313 307 306 304 308 302 309 311 313 315 311 308 315 316 312 311 308 309 306 303 310 312 311 307 305 304 304 308 311 306
322 321 321 321 320 320 318 316 316 316 316 316 316 315 314 313 313 306 305 308 311 311 300 308 308 307 308 310 308 309 314 311 310 307 307 303 309 314 312 306 305 301 304 303 305 307 307
321 320 320 320 320 319 319 316 316 316 316 315 315 315 313 312 306 307 305 307 309 310 297 305 303 308 310 309 305 313 313 311 308 308 308 307 314 312 310 305 304 300 308 308 308 300 296
321 321 319 320 320 319 319 317 316 316 316 316 315 314 312 312 305 308 310 310 308 307 292 310 304 312 309 305 304 307 314 310 306 308 308 307 309 309 308 307 308 304 310 309 309 300 297
321 321 320 320 320 319 318 317 315 315 315 315 314 313 312 307 305 308 311 310 307 297 293 301 307 304 302 301 304 308 309 309 310 306 306 306 312 309 308 310 309 310 306 303 301 298 293
320 320 320 320 320 319 318 318 315 314 314 314 313 312 310 312 306 313 312 308 296 292 306 299 300 300 299 299 302 305 303 301 300 295 296 304 306 308 309 302 306 304 296 291 292 293 292
320 319 319 319 319 319 318 318 316 314 315 313 311 310 308 311 309 310 310 303 291 303 303 301 302 301 299 301 301 303 302 299 303 301 297 296 297 305 307 304 301 300 297 292 289 292 297
319 319 319 319 318 318 318 317 316 315 314 312 309 303 304 310 311 308 306 296 297 303 310 303 300 297 295 302 302 300 300 300 304 303 298 294 297 306 309 307 306 299 296 299 295 299 298
319 319 318 319 318 318 318 317 316 315 313 312 305 308 309 314 313 306 303 300 303 310 313 306 297 299 295 298 299 298 299 304 305 307 301 299 294 303 307 309 306 303 303 296 295 294 294
318 318 318 318 318 318 318 317 316 314 313 310 308 308 316 312 308 304 298 302 307 312 313 307 299 297 299 298 300 297 299 303 309 306 303 300 296 299 306 302 301 302 298 299 299 300 295
318 318 317 318 318 318 318 317 315 313 311 309 307 305 312 311 299 299 299 306 306 309 311 307 310 303 300 301 298 298 299 303 307 307 303 306 295 294 297 308 312 306 304 300 297 296 298
317 317 317 317 317 318 318 317 315 312 311 307 303 308 312 309 295 297 302 307 309 309 309 307 307 310 308 302 297 302 308 311 315 310 306 307 298 293 297 303 305 306 305 304 301 297 295
316 316 316 316 316 317 318 316 313 313 312 308 305 307 306 305 303 301 299 304 307 314 311 310 309 311 309 303 302 305 306 312 314 313 324 311 297 297 294 300 302 303 308 307 301 297 296
315 314 314 314 315 317 318 315 314 313 312 308 306 307 313 304 301 302 300 304 304 305 309 308 307 311 308 302 306 304 307 309 312 317 311 304 298 303 300 308 309 308 306 307 304 304 297
313 313 313 313 314 316 318 315 314 314 312 308 307 309 311 310 312 306 299 301 305 309 306 305 305 310 310 303 308 306 308 306 305 308 306 305 299 301 299 308 308 305 307 308 309 309 309
312 312 312 312 313 316 318 314 315 313 310 306 312 318 312 308 312 301 298 303 307 307 311 312 311 310 310 311 313 316 313 313 311 308 307 303 300 297 295 301 302 299 304 307 308 309 309
311 311 311 313 313 315 318 316 315 314 313 308 308 311 309 308 312 313 316 315 314 307 309 316 314 310 312 314 313 312 311 309 308 304 304 302 300 297 295 296 291 300 312 313 309 311 311
310 310 311 312 314 316 317 317 314 315 313 308 308 309 308 305 313 315 315 315 312 308 311 312 314 313 312 312 305 300 301 306 308 305 304 304 299 295 293 292 297 306 307 307 306 305 311
309 310 311 313 313 316 316 316 315 314 313 308 308 311 310 306 308 317 314 314 308 306 307 311 314 314 313 306 303 297 296 299 300 303 304 304 301 299 293 291 291 303 311 313 312 299 311
309 311 312 312 313 317 315 315 315 314 312 310 306 310 312 306 311 314 310 310 312 308 307 309 311 310 309 303 300 298 298 305 299 298 300 299 299 297 296 293 301 308 311 314 299 300 309
311 311 315 314 316 315 314 314 314 314 314 310 306 311 312 307 310 316 319 312 310 307 303 308 309 312 308 300 300 300 299 301 301 301 298 298 297 297 299 297 295 311 309 303 305 307 308
310 310 314 315 314 314 313 313 313 313 313 311 305 313 315 312 309 317 319 321 318 313 307 308 311 310 311 305 304 303 302 301 298 296 305 299 301 300 299 300 306 308 308 308 309 308 307